Location: Eldred Sherwood Park Lake Dam
(42.9416°N, 93.5655°W)
Time: 09:31:00
(UTC+00:00)

Vanguard 2 Rocket - Pass Details

Date: 15 November 2024
Orbit: 554 x 3296 km, 32.9° (Epoch: 06 December)

Event Time Altitude Azimuth Distance (km) Brightness Sun altitude
Rises 11:22:58 0° 208° (SSW) 4,999 10.5 -19.1°
Reaches altitude 10° 11:26:20 10° 198° (SSW) 4,369 10.3 -18.5°
Maximum altitude 11:37:10 32° 141° (SE) 3,820 10.5 -16.5°
Drops below altitude 10° 11:52:16 10° 88° (E) 6,138 12.4 -13.8°
Sets 11:58:05 0° 81° (E) 7,270 12.8 -12.8°
